Weather History for Monarch Pass, CO

Change the Weather History Date:

Saturday, December 8, 2012

  Actual Average (KGUC) Record (KGUC)
Temperature  
Mean Temperature 16 °F -  
Max Temperature 19 °F 26 °F 42 °F (2012)
Min Temperature 14 °F 2 °F -34 °F (2005)
Degree Days  
Heating Degree Days 48    
Moisture  
Dew Point 14 °F    
Average Humidity 88    
Maximum Humidity 93    
Minimum Humidity 74    
Precipitation  
Precipitation 0.00 in - - ()
Sea Level Pressure  
Sea Level Pressure 29.90 in    
Wind  
Wind Speed - (North)    
Max Wind Speed -    
Max Gust Speed -    
Averages and records for this station are not official NWS values.
T = Trace of Precipitation, MM = Missing Value Source: NWS Daily Summary

Daily Weather History Graph

Daily Weather History Graph

Search for Another Location

Airport:

Trip Planner

Search our weather history database for the weather conditions in past years. The results will help you decide how hot, cold, wet, or windy it might be!

Date:

Astronomy

Dec. 08, 2012 Rise Set
Actual Time 7:10 AM MST 4:44 PM MST
Civil Twilight 6:41 AM MST 5:13 PM MST
Nautical Twilight 6:07 AM MST 5:46 PM MST
Astronomical Twilight 5:35 AM MST 6:19 PM MST
Moon 1:41 AM MST (12/8) 1:13 PM MST (12/8)
Length of Visible Light 10h 32m
Length of Day
9h 33m
Waning Crescent, 27% of the Moon is Illuminated
Dec 8
Waning Crescent
Dec 13
New
Dec 19
First Quarter
Dec 28
Full
Jan 4
Last Quarter

Hourly Weather History & Observations

Time (MST) Temp. Dew Point Humidity Pressure Visibility Wind Dir Wind Speed Gust Speed Precip Events Conditions
12:12 AM 17.6 °F 15.8 °F 93% 30.03 in - North - - N/A   Overcast
12:33 AM 17.6 °F 15.8 °F 93% 30.03 in - North - - N/A   Overcast
12:52 AM 17.6 °F 15.8 °F 93% 30.02 in - North - - N/A   Overcast
1:12 AM 17.6 °F 15.8 °F 93% 30.02 in - North - - N/A   Overcast
1:31 AM 17.6 °F 14.0 °F 86% 30.02 in - North - - N/A   Overcast
1:52 AM 17.6 °F 14.0 °F 86% 30.01 in - North - - N/A   Overcast
2:10 AM 17.6 °F 14.0 °F 86% 30.02 in - North - - N/A   Overcast
2:32 AM 17.6 °F 14.0 °F 86% 30.01 in - North - - N/A   Overcast
2:53 AM 17.6 °F 14.0 °F 86% 30.00 in - North - - N/A   Overcast
3:12 AM 17.6 °F 14.0 °F 86% 29.99 in - North - - N/A   Overcast
3:33 AM 17.6 °F 14.0 °F 86% 29.99 in - North - - N/A   Overcast
3:53 AM 17.6 °F 14.0 °F 86% 29.99 in - North - - N/A   Overcast
4:13 AM 15.8 °F 14.0 °F 93% 29.98 in - North - - N/A   Overcast
4:33 AM 15.8 °F 14.0 °F 93% 29.99 in - North - - N/A   Overcast
4:52 AM 17.6 °F 14.0 °F 86% 29.97 in - North - - N/A   Overcast
5:13 AM 15.8 °F 14.0 °F 93% 29.97 in - North - - N/A   Overcast
5:33 AM 15.8 °F 14.0 °F 93% 29.96 in - North - - N/A   Overcast
5:52 AM 15.8 °F 14.0 °F 93% 29.95 in - North - - N/A   Overcast
6:11 AM 15.8 °F 14.0 °F 93% 29.96 in - North - - N/A   Overcast
6:32 AM 17.6 °F 14.0 °F 86% 29.96 in - North - - N/A   Overcast
6:52 AM 17.6 °F 14.0 °F 86% 29.96 in - North - - N/A   Overcast
7:15 AM 15.8 °F 14.0 °F 93% 29.96 in - North - - N/A   Overcast
7:35 AM 17.6 °F 14.0 °F 86% 29.95 in - North - - N/A   Overcast
7:55 AM 17.6 °F 14.0 °F 86% 29.94 in - North - - N/A   Overcast
8:15 AM 17.6 °F 14.0 °F 86% 29.95 in - North - - N/A   Overcast
8:35 AM 17.6 °F 14.0 °F 86% 29.95 in - North - - N/A   Overcast
8:55 AM 17.6 °F 14.0 °F 86% 29.95 in - North - - N/A   Overcast
9:15 AM 17.6 °F 14.0 °F 86% 29.95 in - North - - N/A   Overcast
9:35 AM 17.6 °F 14.0 °F 86% 29.95 in - North - - N/A   Overcast
9:55 AM 17.6 °F 14.0 °F 86% 29.95 in - North - - N/A   Overcast
10:15 AM 17.6 °F 14.0 °F 86% 29.93 in - North - - N/A   Overcast
10:35 AM 17.6 °F 14.0 °F 86% 29.92 in - North - - N/A   Unknown
10:55 AM 17.6 °F 15.8 °F 93% 29.92 in - North - - N/A   Overcast
11:15 AM 19.4 °F 15.8 °F 86% 29.91 in - North - - N/A   Overcast
11:35 AM 19.4 °F 15.8 °F 86% 29.90 in - North - - N/A   Overcast
11:55 AM 19.4 °F 17.6 °F 93% 29.88 in - North - - N/A   Overcast
12:15 PM 19.4 °F 17.6 °F 93% 29.88 in - North - - N/A   Overcast
12:35 PM 19.4 °F 17.6 °F 93% 29.87 in - North - - N/A   Overcast
12:55 PM 19.4 °F 15.8 °F 86% 29.86 in - North - - N/A   Unknown
1:35 PM 19.4 °F 15.8 °F 86% 29.85 in - North - - N/A   Unknown
1:55 PM 19.4 °F 15.8 °F 86% 29.85 in - North - - N/A   Overcast
2:15 PM 19.4 °F 15.8 °F 86% 29.85 in - North - - N/A   Unknown
2:35 PM 17.6 °F 15.8 °F 93% 29.84 in - North - - N/A   Unknown
2:55 PM 17.6 °F 15.8 °F 93% 29.83 in - North - - N/A   Unknown
3:15 PM 19.4 °F 14.0 °F 80% 29.85 in - North - - N/A   Overcast
3:35 PM 19.4 °F 14.0 °F 80% 29.83 in - North - - N/A   Overcast
3:55 PM 19.4 °F 14.0 °F 80% 29.84 in - North - - N/A   Overcast
4:15 PM 19.4 °F 12.2 °F 74% 29.82 in - North - - N/A   Overcast
4:35 PM 19.4 °F 12.2 °F 74% 29.85 in - North - - N/A   Overcast
4:55 PM 17.6 °F 14.0 °F 86% 29.84 in - North - - N/A   Unknown
5:15 PM 17.6 °F 14.0 °F 86% 29.83 in - North - - N/A   Overcast
5:35 PM 17.6 °F 14.0 °F 86% 29.83 in - North - - N/A   Overcast
5:55 PM 17.6 °F 14.0 °F 86% 29.84 in - North - - N/A   Unknown
6:15 PM 17.6 °F 14.0 °F 86% 29.85 in - North - - N/A   Overcast
6:35 PM 17.6 °F 14.0 °F 86% 29.84 in - North - - N/A   Overcast
6:55 PM 15.8 °F 14.0 °F 93% 29.84 in - North - - N/A   Overcast
7:15 PM 15.8 °F 12.2 °F 86% 29.85 in - North - - N/A   Overcast
7:35 PM 15.8 °F 12.2 °F 86% 29.85 in - North - - N/A   Overcast
7:55 PM 15.8 °F 12.2 °F 86% 29.84 in - North - - N/A   Overcast
8:15 PM 15.8 °F 12.2 °F 86% 29.83 in - North - - N/A   Overcast
8:35 PM 14.0 °F 12.2 °F 93% 29.84 in - North - - N/A   Overcast
8:55 PM 14.0 °F 12.2 °F 93% 29.84 in - North - - N/A   Overcast
9:15 PM 15.8 °F 12.2 °F 86% 29.84 in - North - - N/A   Overcast
9:35 PM 15.8 °F 14.0 °F 93% 29.84 in - North - - N/A   Overcast
9:55 PM 15.8 °F 12.2 °F 86% 29.82 in - North - - N/A   Overcast
10:15 PM 15.8 °F 12.2 °F 86% 29.82 in - North - - N/A   Unknown
10:35 PM 15.8 °F 12.2 °F 86% 29.83 in - North - - N/A   Unknown
10:55 PM 14.0 °F 12.2 °F 93% 29.81 in - North - - N/A   Unknown
11:15 PM 14.0 °F 12.2 °F 93% 29.80 in - North - - N/A   Unknown
11:35 PM 14.0 °F 12.2 °F 93% 29.80 in - North - - N/A   Unknown
11:55 PM 14.0 °F 12.2 °F 93% 29.77 in - North - - N/A   Unknown